Time,TemperatureF,DewpointF,PressureIn,WindDirection,WindDirectionDegrees,WindSpeedMPH,WindSpeedGustMPH,Humidity,HourlyPrecipIn,Conditions,Clouds,dailyrainin,SoftwareType,DateUTC
2013-05-20 00:02:00,75.0,75.0,29.94,SE,135,3.0,4.0,100,0.00,,,0.00,,2013-05-20 04:02:00,
2013-05-20 00:12:00,75.0,75.0,29.93,SE,135,4.0,6.0,100,0.00,,,0.00,,2013-05-20 04:12:00,
2013-05-20 00:23:00,75.0,75.0,29.93,SE,135,4.0,6.0,100,0.00,,,0.00,,2013-05-20 04:23:00,
2013-05-20 00:33:00,75.0,75.0,29.93,SE,135,4.0,6.0,100,0.00,,,0.00,,2013-05-20 04:33:00,
2013-05-20 00:43:00,75.0,75.0,29.93,SE,135,4.0,6.0,100,0.00,,,0.00,,2013-05-20 04:43:00,
2013-05-20 00:52:00,74.0,74.0,29.94,SE,135,2.0,4.0,100,0.00,,,0.00,,2013-05-20 04:52:00,
2013-05-20 01:02:00,74.0,74.0,29.94,SE,135,2.0,6.0,100,0.00,,,0.00,,2013-05-20 05:02:00,
2013-05-20 01:12:00,74.0,74.0,29.94,South,180,3.0,6.0,100,0.00,,,0.00,,2013-05-20 05:12:00,
2013-05-20 01:21:00,74.0,74.0,29.94,South,180,3.0,6.0,100,0.00,,,0.00,,2013-05-20 05:21:00,
2013-05-20 01:32:00,74.0,74.0,29.94,South,180,3.0,4.0,100,0.00,,,0.00,,2013-05-20 05:32:00,
2013-05-20 01:42:00,74.0,74.0,29.94,South,180,3.0,4.0,100,0.00,,,0.00,,2013-05-20 05:42:00,
2013-05-20 01:51:00,73.0,73.0,29.94,SE,135,3.0,5.0,100,0.00,,,0.00,,2013-05-20 05:51:00,
2013-05-20 02:01:00,73.0,73.0,29.94,SE,135,1.0,2.0,100,0.00,,,0.00,,2013-05-20 06:01:00,
2013-05-20 02:11:00,73.0,73.0,29.94,SE,135,3.0,6.0,100,0.00,,,0.00,,2013-05-20 06:11:00,
2013-05-20 02:21:00,73.0,73.0,29.94,SE,135,3.0,6.0,100,0.00,,,0.00,,2013-05-20 06:21:00,
2013-05-20 02:32:00,72.0,72.0,29.93,SSE,157,2.0,2.0,100,0.00,,,0.00,,2013-05-20 06:32:00,
2013-05-20 02:41:00,72.0,72.0,29.93,SSE,157,2.0,2.0,100,0.00,,,0.00,,2013-05-20 06:41:00,
2013-05-20 02:52:00,72.0,72.0,29.93,SE,135,2.0,6.0,100,0.00,,,0.00,,2013-05-20 06:52:00,
2013-05-20 03:02:00,72.0,72.0,29.93,South,180,1.0,3.0,100,0.00,,,0.00,,2013-05-20 07:02:00,
2013-05-20 03:12:00,72.0,72.0,29.93,South,180,1.0,3.0,100,0.00,,,0.00,,2013-05-20 07:12:00,
2013-05-20 03:21:00,72.0,72.0,29.93,SE,135,1.0,2.0,100,0.00,,,0.00,,2013-05-20 07:21:00,
2013-05-20 03:32:00,71.0,71.0,29.93,South,180,0.0,0.0,100,0.00,,,0.00,,2013-05-20 07:32:00,
2013-05-20 03:42:00,71.0,71.0,29.93,South,180,0.0,0.0,100,0.00,,,0.00,,2013-05-20 07:42:00,
2013-05-20 03:52:00,71.0,71.0,29.92,South,180,1.0,3.0,100,0.00,,,0.00,,2013-05-20 07:52:00,
2013-05-20 04:01:00,71.0,71.0,29.92,South,180,1.0,3.0,100,0.00,,,0.00,,2013-05-20 08:01:00,
2013-05-20 04:11:00,71.0,71.0,29.92,South,180,1.0,3.0,100,0.00,,,0.00,,2013-05-20 08:11:00,
2013-05-20 04:21:00,71.0,71.0,29.92,South,180,1.0,3.0,100,0.00,,,0.00,,2013-05-20 08:21:00,
2013-05-20 04:31:00,70.0,70.0,29.94,SE,135,3.0,3.0,100,0.00,,,0.00,,2013-05-20 08:31:00,
2013-05-20 04:42:00,70.0,70.0,29.94,SE,135,3.0,3.0,100,0.00,,,0.00,,2013-05-20 08:42:00,
2013-05-20 04:52:00,70.0,70.0,29.94,SE,135,3.0,3.0,100,0.00,,,0.00,,2013-05-20 08:52:00,
2013-05-20 05:02:00,70.0,70.0,29.94,SE,135,3.0,3.0,100,0.00,,,0.00,,2013-05-20 09:02:00,
2013-05-20 05:12:00,70.0,70.0,29.94,SE,135,3.0,3.0,100,0.00,,,0.00,,2013-05-20 09:12:00,
2013-05-20 05:22:00,69.0,69.0,29.92,SE,135,1.0,1.0,100,0.00,,,0.00,,2013-05-20 09:22:00,
2013-05-20 05:33:00,69.0,69.0,29.92,East,90,2.0,3.0,100,0.00,,,0.00,,2013-05-20 09:33:00,
2013-05-20 05:43:00,69.0,69.0,29.92,East,90,2.0,3.0,100,0.00,,,0.00,,2013-05-20 09:43:00,
2013-05-20 05:53:00,68.0,68.0,29.92,SE,135,2.0,5.0,100,0.00,,,0.00,,2013-05-20 09:53:00,
2013-05-20 06:03:00,68.0,68.0,29.93,SSE,157,1.0,4.0,100,0.00,,,0.00,,2013-05-20 10:03:00,
2013-05-20 06:12:00,68.0,68.0,29.93,SSE,157,1.0,4.0,100,0.00,,,0.00,,2013-05-20 10:12:00,
2013-05-20 06:22:00,68.0,68.0,29.93,SE,135,2.0,5.0,100,0.00,,,0.00,,2013-05-20 10:22:00,
2013-05-20 06:32:00,68.0,68.0,29.93,SE,135,3.0,4.0,100,0.00,,,0.00,,2013-05-20 10:32:00,
2013-05-20 06:42:00,68.0,68.0,29.93,SE,135,3.0,4.0,100,0.00,,,0.00,,2013-05-20 10:42:00,
2013-05-20 06:52:00,68.0,68.0,29.93,SE,135,4.0,6.0,100,0.00,,,0.00,,2013-05-20 10:52:00,
2013-05-20 07:02:00,67.0,67.0,29.94,SE,135,2.0,4.0,100,0.00,,,0.00,,2013-05-20 11:02:00,
2013-05-20 07:12:00,67.0,67.0,29.94,SE,135,2.0,4.0,100,0.00,,,0.00,,2013-05-20 11:12:00,
2013-05-20 07:21:00,67.0,67.0,29.94,SE,135,3.0,6.0,100,0.00,,,0.00,,2013-05-20 11:21:00,
2013-05-20 07:32:00,68.0,68.0,29.95,South,180,3.0,5.0,100,0.00,,,0.00,,2013-05-20 11:32:00,
2013-05-20 07:41:00,68.0,68.0,29.95,South,180,3.0,5.0,100,0.00,,,0.00,,2013-05-20 11:41:00,
2013-05-20 07:51:00,68.0,68.0,29.96,SSE,157,5.0,7.0,100,0.00,,,0.00,,2013-05-20 11:51:00,
2013-05-20 08:01:00,69.0,69.0,29.96,SSE,157,3.0,5.0,100,0.00,,,0.00,,2013-05-20 12:01:00,
2013-05-20 08:11:00,69.0,69.0,29.96,SSE,157,3.0,5.0,100,0.00,,,0.00,,2013-05-20 12:11:00,
2013-05-20 08:21:00,70.0,70.0,29.97,SSE,157,2.0,4.0,100,0.00,,,0.00,,2013-05-20 12:21:00,
2013-05-20 08:31:00,71.0,71.0,29.98,SSE,157,4.0,6.0,100,0.00,,,0.00,,2013-05-20 12:31:00,
2013-05-20 08:41:00,71.0,71.0,29.98,SSE,157,4.0,6.0,100,0.00,,,0.00,,2013-05-20 12:41:00,
2013-05-20 08:52:00,71.0,71.0,29.97,SSE,157,5.0,6.0,100,0.00,,,0.00,,2013-05-20 12:52:00,
2013-05-20 09:01:00,73.0,73.0,29.98,SSE,157,4.0,7.0,100,0.00,,,0.00,,2013-05-20 13:01:00,
2013-05-20 09:11:00,73.0,73.0,29.98,SSE,157,4.0,7.0,100,0.00,,,0.00,,2013-05-20 13:11:00,
2013-05-20 09:22:00,75.0,75.0,29.98,South,180,3.0,5.0,100,0.00,,,0.00,,2013-05-20 13:22:00,
2013-05-20 09:31:00,75.0,74.0,30.00,South,180,3.0,6.0,97,0.00,,,0.00,,2013-05-20 13:31:00,
2013-05-20 09:41:00,74.0,74.0,30.00,SSW,202,2.0,3.0,100,0.00,,,0.00,,2013-05-20 13:41:00,
2013-05-20 09:52:00,74.0,74.0,30.00,SSW,202,2.0,3.0,100,0.00,,,0.00,,2013-05-20 13:52:00,
2013-05-20 10:01:00,75.0,75.0,30.00,SSW,202,2.0,6.0,100,0.00,,,0.00,,2013-05-20 14:01:00,
2013-05-20 10:11:00,75.0,75.0,30.00,SSW,202,2.0,6.0,100,0.00,,,0.00,,2013-05-20 14:11:00,
2013-05-20 10:22:00,76.0,75.0,29.98,SW,225,5.0,12.0,97,0.00,,,0.00,,2013-05-20 14:22:00,
2013-05-20 10:31:00,78.0,75.0,29.98,WSW,247,2.0,4.0,91,0.00,,,0.00,,2013-05-20 14:31:00,
2013-05-20 10:41:00,78.0,75.0,29.98,WSW,247,2.0,4.0,91,0.00,,,0.00,,2013-05-20 14:41:00,
2013-05-20 10:52:00,78.0,75.0,30.00,South,180,2.0,4.0,90,0.00,,,0.00,,2013-05-20 14:52:00,
2013-05-20 11:01:00,80.0,76.0,30.00,SSW,202,3.0,7.0,87,0.00,,,0.00,,2013-05-20 15:01:00,
2013-05-20 11:11:00,80.0,76.0,30.00,SSW,202,3.0,7.0,87,0.00,,,0.00,,2013-05-20 15:11:00,
2013-05-20 11:21:00,80.0,75.0,30.01,West,270,4.0,6.0,84,0.00,,,0.00,,2013-05-20 15:21:00,
2013-05-20 11:33:00,80.0,74.0,30.02,West,270,3.0,6.0,83,0.00,,,0.00,,2013-05-20 15:33:00,
2013-05-20 11:42:00,80.0,74.0,30.02,SSW,202,3.0,6.0,83,0.00,,,0.00,,2013-05-20 15:42:00,
2013-05-20 11:53:00,80.0,74.0,30.02,SSW,202,3.0,6.0,83,0.00,,,0.00,,2013-05-20 15:53:00,
2013-05-20 12:03:00,81.0,75.0,30.02,SW,225,5.0,6.0,81,0.00,,,0.00,,2013-05-20 16:03:00,
2013-05-20 12:12:00,81.0,75.0,30.02,SW,225,5.0,6.0,81,0.00,,,0.00,,2013-05-20 16:12:00,
2013-05-20 12:22:00,81.0,73.0,30.02,South,180,2.0,5.0,77,0.00,,,0.00,,2013-05-20 16:22:00,
2013-05-20 12:33:00,83.0,75.0,30.00,West,270,3.0,5.0,76,0.00,,,0.00,,2013-05-20 16:33:00,
2013-05-20 12:42:00,83.0,75.0,30.00,West,270,3.0,5.0,76,0.00,,,0.00,,2013-05-20 16:42:00,
2013-05-20 12:53:00,84.0,72.0,30.01,WNW,292,4.0,7.0,68,0.00,,,0.00,,2013-05-20 16:53:00,
2013-05-20 13:02:00,84.0,72.0,30.01,South,180,3.0,7.0,68,0.00,,,0.00,,2013-05-20 17:02:00,
2013-05-20 13:12:00,84.0,71.0,30.00,SSW,202,1.0,2.0,66,0.00,,,0.00,,2013-05-20 17:12:00,
2013-05-20 13:22:00,84.0,71.0,30.00,SSW,202,1.0,2.0,66,0.00,,,0.00,,2013-05-20 17:22:00,
2013-05-20 13:33:00,84.0,72.0,30.00,SSE,157,2.0,4.0,67,0.00,,,0.00,,2013-05-20 17:33:00,
2013-05-20 13:45:00,84.0,72.0,30.00,SSE,157,2.0,4.0,67,0.00,,,0.00,,2013-05-20 17:45:00,
2013-05-20 13:53:00,84.0,71.0,30.00,South,180,2.0,5.0,65,0.00,,,0.00,,2013-05-20 17:53:00,
2013-05-20 14:02:00,84.0,70.0,30.00,SW,225,4.0,7.0,64,0.00,,,0.00,,2013-05-20 18:02:00,
2013-05-20 14:12:00,85.0,72.0,30.01,West,270,4.0,6.0,65,0.00,,,0.00,,2013-05-20 18:12:00,
2013-05-20 14:23:00,85.0,72.0,30.01,West,270,4.0,6.0,65,0.00,,,0.00,,2013-05-20 18:23:00,
2013-05-20 14:32:00,86.0,71.0,30.01,SW,225,3.0,4.0,61,0.00,,,0.00,,2013-05-20 18:32:00,
2013-05-20 14:41:00,86.0,71.0,30.01,SW,225,3.0,4.0,61,0.00,,,0.00,,2013-05-20 18:41:00,
2013-05-20 14:55:00,86.0,70.0,30.00,SW,225,4.0,7.0,60,0.00,,,0.00,,2013-05-20 18:55:00,
2013-05-20 15:04:00,86.0,71.0,30.00,South,180,1.0,4.0,61,0.00,,,0.00,,2013-05-20 19:04:00,
2013-05-20 15:11:00,86.0,71.0,29.98,South,180,2.0,4.0,62,0.00,,,0.00,,2013-05-20 19:11:00,
2013-05-20 15:21:00,86.0,71.0,29.98,South,180,2.0,4.0,62,0.00,,,0.00,,2013-05-20 19:21:00,
2013-05-20 15:32:00,87.0,71.0,29.98,SW,225,3.0,7.0,59,0.00,,,0.00,,2013-05-20 19:32:00,
2013-05-20 15:41:00,87.0,72.0,29.98,SW,225,3.0,4.0,61,0.00,,,0.00,,2013-05-20 19:41:00,
2013-05-20 15:52:00,87.0,72.0,29.98,SW,225,3.0,4.0,61,0.00,,,0.00,,2013-05-20 19:52:00,
2013-05-20 16:01:00,87.0,71.0,29.98,SW,225,5.0,8.0,59,0.00,,,0.00,,2013-05-20 20:01:00,
2013-05-20 16:12:00,86.0,70.0,29.98,WSW,247,5.0,12.0,60,0.00,,,0.00,,2013-05-20 20:12:00,
2013-05-20 16:21:00,86.0,70.0,29.98,WSW,247,5.0,12.0,60,0.00,,,0.00,,2013-05-20 20:21:00,
2013-05-20 16:32:00,85.0,70.0,29.98,SW,225,4.0,6.0,61,0.00,,,0.00,,2013-05-20 20:32:00,
2013-05-20 16:42:00,85.0,70.0,29.98,SW,225,3.0,6.0,62,0.00,,,0.00,,2013-05-20 20:42:00,
2013-05-20 16:51:00,85.0,70.0,29.98,SW,225,3.0,6.0,62,0.00,,,0.00,,2013-05-20 20:51:00,
2013-05-20 17:01:00,85.0,70.0,29.98,SW,225,3.0,6.0,62,0.00,,,0.00,,2013-05-20 21:01:00,
2013-05-20 17:11:00,85.0,71.0,29.97,SW,225,2.0,2.0,63,0.00,,,0.00,,2013-05-20 21:11:00,
2013-05-20 17:21:00,85.0,71.0,29.97,SW,225,2.0,2.0,63,0.00,,,0.00,,2013-05-20 21:21:00,
2013-05-20 17:33:00,84.0,70.0,29.97,SW,225,2.0,6.0,63,0.00,,,0.00,,2013-05-20 21:33:00,
2013-05-20 17:43:00,84.0,71.0,29.97,WSW,247,3.0,5.0,65,0.00,,,0.00,,2013-05-20 21:43:00,
2013-05-20 17:53:00,84.0,71.0,29.97,WSW,247,3.0,5.0,65,0.00,,,0.00,,2013-05-20 21:53:00,
2013-05-20 18:02:00,84.0,70.0,29.97,SSE,157,4.0,7.0,62,0.00,,,0.00,,2013-05-20 22:02:00,
2013-05-20 18:12:00,84.0,69.0,29.97,South,180,3.0,7.0,61,0.00,,,0.00,,2013-05-20 22:12:00,
2013-05-20 18:23:00,84.0,69.0,29.97,South,180,3.0,7.0,61,0.00,,,0.00,,2013-05-20 22:23:00,
2013-05-20 18:33:00,84.0,70.0,29.96,SE,135,4.0,8.0,62,0.00,,,0.00,,2013-05-20 22:33:00,
2013-05-20 18:42:00,84.0,70.0,29.96,SE,135,4.0,8.0,62,0.00,,,0.00,,2013-05-20 22:42:00,
2013-05-20 18:52:00,84.0,70.0,29.95,SSE,157,3.0,6.0,63,0.00,,,0.00,,2013-05-20 22:52:00,
2013-05-20 19:02:00,84.0,70.0,29.95,SE,135,4.0,7.0,64,0.00,,,0.00,,2013-05-20 23:02:00,
2013-05-20 19:12:00,85.0,70.0,29.94,SE,135,1.0,3.0,61,0.00,,,0.00,,2013-05-20 23:12:00,
2013-05-20 19:22:00,85.0,70.0,29.94,SE,135,1.0,3.0,61,0.00,,,0.00,,2013-05-20 23:22:00,
2013-05-20 19:32:00,85.0,70.0,29.94,West,270,3.0,6.0,60,0.00,,,0.00,,2013-05-20 23:32:00,
2013-05-20 19:42:00,85.0,70.0,29.94,West,270,3.0,6.0,60,0.00,,,0.00,,2013-05-20 23:42:00,
2013-05-20 19:53:00,85.0,70.0,29.94,West,270,3.0,6.0,60,0.00,,,0.00,,2013-05-20 23:53:00,
2013-05-20 20:01:00,84.0,70.0,29.93,SSE,157,5.0,7.0,62,0.00,,,0.00,,2013-05-21 00:01:00,
2013-05-20 20:11:00,84.0,70.0,29.93,SSE,157,5.0,7.0,62,0.00,,,0.00,,2013-05-21 00:11:00,
2013-05-20 20:21:00,83.0,69.0,29.93,SE,135,3.0,6.0,62,0.00,,,0.00,,2013-05-21 00:21:00,
2013-05-20 20:32:00,81.0,69.0,29.92,SE,135,2.0,5.0,67,0.00,,,0.00,,2013-05-21 00:32:00,
2013-05-20 20:41:00,80.0,70.0,29.91,SSE,157,3.0,6.0,71,0.00,,,0.00,,2013-05-21 00:41:00,
2013-05-20 20:52:00,80.0,70.0,29.91,SSE,157,3.0,6.0,71,0.00,,,0.00,,2013-05-21 00:52:00,
2013-05-20 21:01:00,79.0,70.0,29.90,SE,135,3.0,6.0,75,0.00,,,0.00,,2013-05-21 01:01:00,
2013-05-20 21:11:00,79.0,70.0,29.90,SE,135,3.0,6.0,75,0.00,,,0.00,,2013-05-21 01:11:00,
2013-05-20 21:21:00,79.0,71.0,29.90,ESE,112,4.0,7.0,76,0.00,,,0.00,,2013-05-21 01:21:00,
2013-05-20 21:32:00,78.0,72.0,29.90,East,90,2.0,4.0,82,0.00,,,0.00,,2013-05-21 01:32:00,
2013-05-20 21:42:00,78.0,73.0,29.90,South,180,3.0,7.0,85,0.00,,,0.00,,2013-05-21 01:42:00,
2013-05-20 21:52:00,78.0,73.0,29.90,South,180,3.0,7.0,85,0.00,,,0.00,,2013-05-21 01:52:00,
2013-05-20 22:02:00,77.0,73.0,29.90,South,180,5.0,9.0,87,0.00,,,0.00,,2013-05-21 02:02:00,
2013-05-20 22:11:00,77.0,73.0,29.90,SSE,157,3.0,6.0,87,0.00,,,0.00,,2013-05-21 02:11:00,
2013-05-20 22:21:00,77.0,73.0,29.90,SSE,157,3.0,6.0,87,0.00,,,0.00,,2013-05-21 02:21:00,
2013-05-20 22:32:00,77.0,74.0,29.91,East,90,3.0,6.0,89,0.00,,,0.00,,2013-05-21 02:32:00,
2013-05-20 22:41:00,76.0,73.0,29.91,SE,135,3.0,7.0,90,0.00,,,0.00,,2013-05-21 02:41:00,
2013-05-20 22:52:00,76.0,73.0,29.91,SE,135,3.0,7.0,90,0.00,,,0.00,,2013-05-21 02:52:00,
2013-05-20 23:02:00,76.0,73.0,29.92,SE,135,2.0,4.0,91,0.00,,,0.00,,2013-05-21 03:02:00,
2013-05-20 23:11:00,75.0,73.0,29.92,SE,135,2.0,3.0,92,0.00,,,0.00,,2013-05-21 03:11:00,
2013-05-20 23:21:00,75.0,73.0,29.92,SE,135,2.0,3.0,92,0.00,,,0.00,,2013-05-21 03:21:00,
2013-05-20 23:33:00,75.0,73.0,29.92,South,180,4.0,9.0,93,0.00,,,0.00,,2013-05-21 03:33:00,
2013-05-20 23:43:00,75.0,73.0,29.90,SE,135,5.0,9.0,93,0.00,,,0.00,,2013-05-21 03:43:00,
2013-05-20 23:53:00,75.0,73.0,29.90,SE,135,5.0,9.0,93,0.00,,,0.00,,2013-05-21 03:53:00,